{"data":{"norad_id":67166,"epoch":"2026-05-24T23:22:55.138656Z","epoch_age_seconds":84051,"freshness":"FRESH","line1":"1 67166U 25303D   26144.97424929  .00013579  00000+0  50194-3 0  9998","line2":"2 67166  43.0005 239.7526 0001505 269.0869  90.9811 15.27587160 24405","mean_motion":15.2758716,"eccentricity":0.0001505,"inclination_deg":43.0005,"raan_deg":239.7526,"arg_perigee_deg":269.0869,"mean_anomaly_deg":90.9811,"bstar":0.00050194,"rev_number":2440,"period_min":94.266306873121,"perigee_km":481.99505122679,"apogee_km":484.0602617884,"semimajor_km":6861.1646565076,"source":"CELESTRAK","updated_at":"2026-05-25T13:38:21.479984Z"}}